PERSEUS-M1

Last updated on Thu Nov 21 2024 00:03:39 GMT+0000 (Coordinated Universal Time)

1 40039U 14033AF 24325.21833764 .00004575 00000+0 45662-3 0 9993 2 40039 97.9147 252.3641 0013951 45.3839 314.8514 14.91961959564936
UTC large
Height (km)
Speed (km/s)
/
Latitude / Longitude
Inclination (degrees)
Orbital Period (minutes)
Azimuth
Elevation
Range (km)
Doppler Factor

Next 0 passes for location: London (51.5072 / 0.1276)

Sorry there are no passes over London.